M I D A S
Marine Information and Data Acquisition System
Tripno 229 of the Zeeleeuw from 2002-03-25 07:38:32 to 2002-03-25 15:12:41
Back to CruiseResearch ActivitiesStationsMapUnderway DataData graphs

EquipmentUnitsComment
TimeDGPSUTC
LatitudeDGPSDM.mWGS84
LongitudeDGPSDM.mWGS84
TemperatureSBE03/SBE38deg celciusITS90
ConductivitySBE21S/mITS90
SalinitySBE21 Practical Salinity Units
ChlorophylAChelsea fluorimeterg/lCalibrated in Aceton
Missing or incorrect values are displayed as -999
Sea surface data collected by the RV Zeeleeuw from 2002-03-25 07:38:32 to 2002-03-25 15:12:41
                                                                                    Next 1000 lines
Time Latitude Longitude Temperature Conductivity Salinity ChlorophylA
2002-03-25 07:38:40 51°13.694 2°55.734 15.012245 0.0782 0.413469  
2002-03-25 07:38:45 51°13.698 2°55.735 14.96016 0.0782 0.413494  
2002-03-25 07:38:50 51°13.704 2°55.734 14.96016 0.0782 0.413494  
2002-03-25 07:38:55 51°13.711 2°55.733 15.007025 0.0782 0.413481  
2002-03-25 07:39:00 51°13.718 2°55.729 15.02664 0.0782 0.41345  
2002-03-25 07:39:05 51°13.726 2°55.725 15.046641 0.0782 0.413418  
2002-03-25 07:39:10 51°13.734 2°55.718 15.204745 0.0782 0.413386  
2002-03-25 07:39:15 51°13.742 2°55.711 15.290959 0.0782 0.413367  
2002-03-25 07:39:20 51°13.751 2°55.703 15.290959 0.0782 0.413367  
2002-03-25 07:39:25 51°13.761 2°55.695 15.304992 0.0782 0.413348  
2002-03-25 07:39:29 51°13.769 2°55.688 15.288186 0.0782 0.413335  
2002-03-25 07:39:35 51°13.781 2°55.677 15.289269 0.0782 0.413348  
2002-03-25 07:39:40 51°13.791 2°55.668 15.293471 0.0782 0.413367  
2002-03-25 07:39:45 51°13.802 2°55.659 15.281255 0.0782 0.413392  
2002-03-25 07:39:50 51°13.813 2°55.65 15.281255 0.0782 0.413392  
2002-03-25 07:39:55 51°13.824 2°55.641 15.269123 0.0782 0.413418  
2002-03-25 07:40:00 51°13.835 2°55.631 15.255559 0.0782 0.413443  
2002-03-25 07:40:06 51°13.849 2°55.62 15.268993 0.0782 0.413456  
2002-03-25 07:40:11 51°13.861 2°55.61 15.258506 0.0782 0.413456  
2002-03-25 07:40:15 51°13.87 2°55.603 15.247844 0.0782 0.413462  
2002-03-25 07:40:20 51°13.882 2°55.593 15.247844 0.0782 0.413462  
2002-03-25 07:40:26 51°13.896 2°55.582 15.252438 0.0782 0.413462  
2002-03-25 07:40:30 51°13.906 2°55.575 15.289789 0.0782 0.413462  
2002-03-25 07:40:36 51°13.921 2°55.563 15.255646 0.0782 0.413462  
2002-03-25 07:40:41 51°13.933 2°55.554 15.275189 0.0782 0.413456  
2002-03-25 07:40:45 51°13.943 2°55.547 15.304949 0.0782 0.413456  
2002-03-25 07:40:50 51°13.955 2°55.537 15.304949 0.0782 0.413456  
2002-03-25 07:40:55 51°13.967 2°55.528 15.258203 0.0782 0.413462  
2002-03-25 07:41:00 51°13.98 2°55.52 15.287796 0.0782 0.413462  
2002-03-25 07:41:05 51°13.992 2°55.511 15.24403 0.0782 0.413462  
2002-03-25 07:41:10 51°14.005 2°55.502 15.171384 0.0782 0.413475  
2002-03-25 07:41:16 51°14.02 2°55.492 15.207434 0.0782 0.413481  
2002-03-25 07:41:21 51°14.032 2°55.484 15.207434 0.0782 0.413481  
2002-03-25 07:41:25 51°14.042 2°55.477 15.196374 0.0782 0.413494  
2002-03-25 07:41:30 51°14.055 2°55.468 15.198586 0.0782 0.4135  
2002-03-25 07:41:36 51°14.07 2°55.457 15.194292 0.0782 0.4135  
2002-03-25 07:41:41 51°14.082 2°55.448 15.202403 0.0782 0.413494  
2002-03-25 07:41:46 51°14.094 2°55.439 15.181277 0.0782 0.413494  
2002-03-25 07:41:51 51°14.106 2°55.429 15.181277 0.0782 0.413494  
2002-03-25 07:41:55 51°14.116 2°55.421 15.187524 0.0782 0.413494  
2002-03-25 07:42:00 51°14.128 2°55.412 15.211728 0.0782 0.413488  
2002-03-25 07:42:05 51°14.141 2°55.402 15.165699 0.078101 0.412954  
2002-03-25 07:42:11 51°14.155 2°55.389 15.137398 0.0782 0.413494  
2002-03-25 07:42:16 51°14.167 2°55.378 15.169691 0.0782 0.4135  
2002-03-25 07:42:20 51°14.176 2°55.369 15.169691 0.0782 0.4135  
2002-03-25 07:42:25 51°14.187 2°55.358 15.198803 0.0782 0.413507  
2002-03-25 07:42:30 51°14.198 2°55.345 15.130755 0.0782 0.413513  
2002-03-25 07:42:35 51°14.209 2°55.333 15.173249 0.0782 0.41352  
2002-03-25 07:42:40 51°14.22 2°55.32 15.210947 0.078101 0.41298  
2002-03-25 07:42:45 51°14.23 2°55.307 15.107434 0.0782 0.413532  
2002-03-25 07:42:50 51°14.241 2°55.293 15.107434 0.0782 0.413532  
2002-03-25 07:42:56 51°14.252 2°55.275 15.109432 0.0782 0.413539  
2002-03-25 07:43:00 51°14.26 2°55.263 15.172555 0.0782 0.413532  
2002-03-25 07:43:05 51°14.269 2°55.248 15.166827 0.0782 0.413539  
2002-03-25 07:43:09 51°14.276 2°55.235 15.12372 0.0782 0.413545  
2002-03-25 07:43:15 51°14.286 2°55.215 15.178413 0.0782 0.413545  
2002-03-25 07:43:20 51°14.295 2°55.199 15.178413 0.0782 0.413545  
2002-03-25 07:43:25 51°14.304 2°55.182 15.190648 0.078101 0.413012  
2002-03-25 07:43:31 51°14.314 2°55.162 15.210861 0.078101 0.413018  
2002-03-25 07:43:35 51°14.321 2°55.149 15.198456 0.0782 0.413564  
2002-03-25 07:43:40 51°14.329 2°55.132 15.189954 0.078101 0.413031  
2002-03-25 07:43:45 51°14.338 2°55.116 15.172425 0.0782 0.413577  
2002-03-25 07:43:50 51°14.347 2°55.1 15.172425 0.0782 0.413577  
2002-03-25 07:43:55 51°14.357 2°55.085 15.231588 0.078101 0.413037  
2002-03-25 07:44:00 51°14.367 2°55.07 15.200581 0.078101 0.413031  
2002-03-25 07:44:06 51°14.382 2°55.053 15.253479 0.078101 0.413018  
2002-03-25 07:44:11 51°14.395 2°55.04 15.290092 0.078101 0.413018  
2002-03-25 07:44:16 51°14.409 2°55.026 15.27207 0.078101 0.413037  
2002-03-25 07:44:20 51°14.42 2°55.016 15.27207 0.078101 0.413037  
2002-03-25 07:44:25 51°14.434 2°55.002 15.277529 0.078101 0.41305  
2002-03-25 07:44:30 51°14.448 2°54.988 15.251962 0.078101 0.413062  
2002-03-25 07:44:35 51°14.461 2°54.974 15.26479 0.078101 0.413069  
2002-03-25 07:44:41 51°14.478 2°54.957 15.247584 0.078101 0.413069  
2002-03-25 07:44:46 51°14.492 2°54.944 15.258203 0.078101 0.413069  
2002-03-25 07:44:51 51°14.506 2°54.93 15.258203 0.078101 0.413069  
2002-03-25 07:44:55 51°14.517 2°54.918 15.23059 0.078101 0.413069  
2002-03-25 07:45:00 51°14.53 2°54.904 15.234102 0.078101 0.413075  
2002-03-25 07:45:05 51°14.544 2°54.889 15.231328 0.078101 0.413081  
2002-03-25 07:45:11 51°14.56 2°54.872 15.234753 0.078101 0.413094  
2002-03-25 07:45:16 51°14.574 2°54.857 15.239565 0.078101 0.413107  
2002-03-25 07:45:20 51°14.585 2°54.846 15.239565 0.078101 0.413107  
2002-03-25 07:45:26 51°14.602 2°54.829 15.235099 0.078101 0.413107  
2002-03-25 07:45:30 51°14.613 2°54.818 15.233148 0.078101 0.413113  
2002-03-25 07:45:35 51°14.627 2°54.804 15.219534 0.078101 0.413126  
2002-03-25 07:45:41 51°14.643 2°54.786 15.215414 0.078101 0.413126  
2002-03-25 07:45:45 51°14.654 2°54.773 15.223523 0.078101 0.413126  
2002-03-25 07:45:51 51°14.67 2°54.754 15.223523 0.078101 0.413126  
2002-03-25 07:45:55 51°14.68 2°54.74 15.219967 0.078101 0.413113  
2002-03-25 07:46:00 51°14.693 2°54.723 15.220705 0.078101 0.413107  
2002-03-25 07:46:05 51°14.705 2°54.706 15.215458 0.078101 0.413101  
2002-03-25 07:46:10 51°14.718 2°54.688 15.232628 0.078101 0.413094  
2002-03-25 07:46:15 51°14.731 2°54.671 15.231241 0.078101 0.413101  
2002-03-25 07:46:20 51°14.745 2°54.654 15.231241 0.078101 0.413101  
2002-03-25 07:46:26 51°14.761 2°54.635 15.234189 0.078101 0.413094  
2002-03-25 07:46:31 51°14.775 2°54.619 15.219881 0.078101 0.413081  
2002-03-25 07:46:36 51°14.79 2°54.603 15.221138 0.078101 0.413081  
2002-03-25 07:46:40 51°14.801 2°54.589 15.221355 0.078101 0.413088  
2002-03-25 07:46:45 51°14.815 2°54.573 15.219534 0.078101 0.413126  
2002-03-25 07:46:49 51°14.826 2°54.559 15.219534 0.078101 0.413126  
2002-03-25 07:46:56 51°14.845 2°54.536 15.226905 0.078101 0.413139  
2002-03-25 07:47:00 51°14.856 2°54.522 15.216412 0.078101 0.413177  
2002-03-25 07:47:06 51°14.873 2°54.501 15.224087 0.078101 0.41319  
2002-03-25 07:47:11 51°14.887 2°54.483 15.211468 0.078101 0.413215  
2002-03-25 07:47:15 51°14.899 2°54.469 15.219013 0.078101 0.413209  
2002-03-25 07:47:20 51°14.913 2°54.45 15.219013 0.078101 0.413209  
2002-03-25 07:47:25 51°14.927 2°54.433 15.226038 0.078101 0.413209  
2002-03-25 07:47:31 51°14.944 2°54.41 15.205353 0.078101 0.413209  
2002-03-25 07:47:35 51°14.956 2°54.397 15.228032 0.078101 0.413113  
2002-03-25 07:47:41 51°14.973 2°54.373 15.222049 0.078101 0.413043  
2002-03-25 07:47:45 51°14.986 2°54.36 15.216889 0.078101 0.412961  
2002-03-25 07:47:51 51°15.003 2°54.337 15.216889 0.078101 0.412961  
2002-03-25 07:47:56 51°15.019 2°54.321 15.198499 0.078101 0.41298  
2002-03-25 07:48:01 51°15.033 2°54.303 17.094348 0.078101 0.413043  
2002-03-25 07:48:06 51°15.05 2°54.288 15.174247 0.078101 0.413113  
2002-03-25 07:48:11 51°15.065 2°54.27 15.197935 0.078101 0.41326  
2002-03-25 07:48:16 51°15.082 2°54.256 15.179801 0.078101 0.41333  
2002-03-25 07:48:20 51°15.095 2°54.243 15.179801 0.078101 0.41333  
2002-03-25 07:48:26 51°15.115 2°54.227 15.190214 0.078101 0.413406  
2002-03-25 07:48:30 51°15.129 2°54.214 15.188782 0.078101 0.4134  
2002-03-25 07:48:35 51°15.145 2°54.201 15.176113 0.078101 0.413361  
2002-03-25 07:48:40 51°15.163 2°54.186 15.179194 0.078101 0.413336  
2002-03-25 07:48:45 51°15.18 2°54.173 15.17646 0.078101 0.413266  
2002-03-25 07:48:50 51°15.197 2°54.158 15.17646 0.078101 0.413266  
2002-03-25 07:48:55 51°15.214 2°54.144 15.212899 0.078101 0.413266  
2002-03-25 07:49:00 51°15.231 2°54.131 15.17338 0.078101 0.413234  
2002-03-25 07:49:05 51°15.248 2°54.116 15.167825 0.078101 0.413228  
2002-03-25 07:49:11 51°15.268 2°54.099 15.159059 0.078101 0.413234  
2002-03-25 07:49:16 51°15.285 2°54.085 15.142781 0.078101 0.41319  
2002-03-25 07:49:21 51°15.302 2°54.071 15.142781 0.078101 0.41319  
2002-03-25 07:49:25 51°15.315 2°54.058 15.191429 0.078101 0.413177  
2002-03-25 07:49:31 51°15.335 2°54.042 15.152852 0.078101 0.41312  
2002-03-25 07:49:35 51°15.348 2°54.029 15.14786 0.078101 0.413107  
2002-03-25 07:49:40 51°15.365 2°54.015 15.184053 0.078101 0.413088  
2002-03-25 07:49:45 51°15.381 2°53.999 15.141956 0.078101 0.413088  
2002-03-25 07:49:51 51°15.402 2°53.983 15.141956 0.078101 0.413088  
2002-03-25 07:49:55 51°15.414 2°53.969 15.144083 0.078101 0.41312  
2002-03-25 07:50:00 51°15.432 2°53.956 15.137701 0.078101 0.413139  
2002-03-25 07:50:05 51°15.447 2°53.939 15.141696 0.078101 0.413209  
2002-03-25 07:50:09 51°15.461 2°53.928 15.139004 0.078101 0.413234  
2002-03-25 07:50:15 51°15.48 2°53.908 15.174855 0.078101 0.413304  
2002-03-25 07:50:20 51°15.496 2°53.894 15.174855 0.078101 0.413304  
2002-03-25 07:50:25 51°15.512 2°53.877 15.170125 0.078101 0.413336  
2002-03-25 07:50:31 51°15.532 2°53.86 15.127064 0.078101 0.413361  
2002-03-25 07:50:35 51°15.545 2°53.846 15.130147 0.078101 0.413387  
2002-03-25 07:50:40 51°15.562 2°53.832 15.118943 0.078101 0.413374  
2002-03-25 07:50:45 51°15.578 2°53.816 15.126499 0.078101 0.413387  
2002-03-25 07:50:50 51°15.594 2°53.8 15.126499 0.078101 0.413387  
2002-03-25 07:50:55 51°15.611 2°53.785 15.125501 0.078101 0.413349  
2002-03-25 07:51:00 51°15.627 2°53.77 15.124328 0.078101 0.413323  
2002-03-25 07:51:05 51°15.644 2°53.755 15.122852 0.078101 0.413291  
2002-03-25 07:51:10 51°15.66 2°53.739 15.122721 0.078101 0.41326  
2002-03-25 07:51:15 51°15.677 2°53.725 15.12194 0.078101 0.413253  
2002-03-25 07:51:20 51°15.694 2°53.709 15.12194 0.078101 0.413253  
2002-03-25 07:51:25 51°15.711 2°53.696 15.154501 0.078101 0.413234  
2002-03-25 07:51:30 51°15.727 2°53.681 15.122852 0.078101 0.413253  
2002-03-25 07:51:35 51°15.745 2°53.669 15.193164 0.078101 0.41324  
2002-03-25 07:51:40 51°15.761 2°53.653 15.121288 0.078101 0.413272  
2002-03-25 07:51:45 51°15.779 2°53.641 15.117597 0.078101 0.413291  
2002-03-25 07:51:49 51°15.792 2°53.628 15.117597 0.078101 0.413291  
2002-03-25 07:51:56 51°15.817 2°53.61 15.113602 0.078101 0.413298  
2002-03-25 07:52:00 51°15.83 2°53.597 15.115252 0.078101 0.413336  
2002-03-25 07:52:06 51°15.851 2°53.583 15.115686 0.078101 0.413336  
2002-03-25 07:52:10 51°15.864 2°53.569 15.117597 0.078101 0.413368  
2002-03-25 07:52:15 51°15.881 2°53.557 15.11738 0.078101 0.413361  
2002-03-25 07:52:20 51°15.897 2°53.541 15.11738 0.078101 0.413361  
2002-03-25 07:52:25 51°15.915 2°53.528 15.116207 0.078101 0.413374  
2002-03-25 07:52:31 51°15.935 2°53.51 15.115469 0.078101 0.413361  
2002-03-25 07:52:36 51°15.952 2°53.497 13.957192 0.078101 0.413349  
2002-03-25 07:52:40 51°15.965 2°53.485 11.266064 0.52667 3.101784  
2002-03-25 07:52:45 51°15.982 2°53.471 10.466632 0.658692 3.915728  
2002-03-25 07:52:51 51°16.002 2°53.454 10.466632 0.658692 3.915728  
2002-03-25 07:52:56 51°16.019 2°53.44 9.814982 1.696677 10.630453  
2002-03-25 07:53:00 51°16.033 2°53.429 9.637607 1.98534 12.991075  
2002-03-25 07:53:05 51°16.049 2°53.413 9.530647 2.087622 14.223896  
2002-03-25 07:53:10 51°16.067 2°53.401 9.396676 2.561125 18.872  
2002-03-25 07:53:15 51°16.083 2°53.384 9.353678 2.834062 22.164795  
2002-03-25 07:53:20 51°16.1 2°53.372 9.353678 2.834062 22.164795  
2002-03-25 07:53:25 51°16.116 2°53.356 9.230732 3.143695 26.004476  
2002-03-25 07:53:31 51°16.137 2°53.341 9.187482 3.293116 27.985682  
2002-03-25 07:53:35 51°16.15 2°53.328 9.159314 3.367142 29.250033  
2002-03-25 07:53:40 51°16.168 2°53.316 9.12115 3.393693 29.927689  
2002-03-25 07:53:45 51°16.184 2°53.3 9.154277 3.417739 30.524912  
2002-03-25 07:53:50 51°16.201 2°53.287 9.154277 3.417739 30.524912  
2002-03-25 07:53:56 51°16.222 2°53.269 9.129992 3.424353 30.792845  
2002-03-25 07:54:01 51°16.239 2°53.258 9.025049 3.428362 30.991072  
2002-03-25 07:54:06 51°16.256 2°53.243 9.025525 3.431368 31.116112  
2002-03-25 07:54:10 51°16.27 2°53.233 9.049849 3.433073 31.217543  
2002-03-25 07:54:16 51°16.291 2°53.217 9.074307 3.429267 31.239779  
2002-03-25 07:54:20 51°16.305 2°53.208 9.074307 3.429267 31.239779  
2002-03-25 07:54:25 51°16.323 2°53.196 9.082917 3.43047 31.310002  
2002-03-25 07:54:31 51°16.343 2°53.18 8.979755 3.429969 31.348985  
2002-03-25 07:54:36 51°16.361 2°53.168 8.980184 3.431773 31.394354  
2002-03-25 07:54:41 51°16.378 2°53.155 8.95631 3.430671 31.421726  
2002-03-25 07:54:46 51°16.396 2°53.143 8.9667 3.431673 31.459826  
2002-03-25 07:54:50 51°16.41 2°53.132 8.9667 3.431673 31.459826  
2002-03-25 07:54:55 51°16.428 2°53.121 8.919649 3.429269 31.462603  
2002-03-25 07:55:01 51°16.448 2°53.104 8.998762 3.428869 31.475029  
2002-03-25 07:55:06 51°16.466 2°53.094 9.001763 3.426164 31.459683  
2002-03-25 07:55:11 51°16.482 2°53.079 8.916787 3.425864 31.473861  
2002-03-25 07:55:15 51°16.497 2°53.071 8.95407 3.396013 31.184015  
2002-03-25 07:55:20 51°16.513 2°53.057 8.95407 3.396013 31.184015  
2002-03-25 07:55:25 51°16.531 2°53.046 8.967224 3.422559 31.468192  
2002-03-25 07:55:30 51°16.548 2°53.033 8.945061 3.422559 31.492669  
2002-03-25 07:55:35 51°16.565 2°53.021 8.901954 3.375879 31.025833  
2002-03-25 07:55:40 51°16.582 2°53.008 8.873518 3.419153 31.480948  
2002-03-25 07:55:45 51°16.599 2°52.995 8.913163 3.409136 31.387984  
2002-03-25 07:55:51 51°16.62 2°52.98 8.913163 3.409136 31.387984  
2002-03-25 07:55:55 51°16.633 2°52.97 8.85075 3.414546 31.447562  
2002-03-25 07:56:01 51°16.654 2°52.956 8.89642 3.416249 31.487324  
2002-03-25 07:56:06 51°16.671 2°52.943 8.867552 3.416249 31.496711  
2002-03-25 07:56:11 51°16.688 2°52.931 8.889598 3.421158 31.559229  
2002-03-25 07:56:15 51°16.701 2°52.92 8.870177 3.418553 31.543429  
2002-03-25 07:56:20 51°16.719 2°52.91 8.870177 3.418553 31.543429  
2002-03-25 07:56:25 51°16.735 2°52.895 8.84865 3.417952 31.542344  
2002-03-25 07:56:29 51°16.749 2°52.887 8.869127 3.419956 31.577357  
2002-03-25 07:56:36 51°16.773 2°52.868 8.862732 3.421859 31.602663  
2002-03-25 07:56:40 51°16.787 2°52.861 8.876715 3.426267 31.6602  
2002-03-25 07:56:45 51°16.804 2°52.847 8.822292 3.426768 31.668975  
2002-03-25 07:56:50 51°16.821 2°52.836 8.822292 3.426768 31.668975  
2002-03-25 07:56:55 51°16.838 2°52.823 8.954118 3.427269 31.684309  
2002-03-25 07:57:01 51°16.858 2°52.81 8.860632 3.426267 31.677675  
2002-03-25 07:57:05 51°16.872 2°52.798 8.895609 3.424865 31.668386  
2002-03-25 07:57:10 51°16.888 2°52.786 8.85815 3.425867 31.683037  
2002-03-25 07:57:16 51°16.908 2°52.77 8.811163 3.426268 31.691523  
2002-03-25 07:57:21 51°16.926 2°52.758 8.811163 3.426268 31.691523  
2002-03-25 07:57:25 51°16.939 2°52.748 8.944203 3.426368 31.695469  
2002-03-25 07:57:31 51°16.959 2°52.733 8.846884 3.426167 31.694871  
2002-03-25 07:57:36 51°16.976 2°52.72 8.810112 3.426368 31.702035  
2002-03-25 07:57:40 51°16.99 2°52.709 8.833467 3.425166 31.691882  
2002-03-25 07:57:46 51°17.011 2°52.695 8.889169 3.426067 31.705517  
2002-03-25 07:57:50 51°17.024 2°52.684 8.889169 3.426067 31.705517  
2002-03-25 07:57:56 51°17.045 2°52.67 8.834804 3.426368 31.715175  
2002-03-25 07:58:01 51°17.062 2°52.656 8.838003 3.425166 31.705019  
2002-03-25 07:58:05 51°17.076 2°52.648 8.844401 3.426969 31.725732  
2002-03-25 07:58:11 51°17.096 2°52.631 8.914021 3.428271 31.742766  
2002-03-25 07:58:16 51°17.114 2°52.62 8.878004 3.428672 31.755661  
2002-03-25 07:58:20 51°17.127 2°52.609 8.878004 3.428672 31.755661  
2002-03-25 07:58:26 51°17.148 2°52.596 8.822005 3.428171 31.751976  
2002-03-25 07:58:30 51°17.161 2°52.584 8.79965 3.428973 31.765337  
2002-03-25 07:58:35 51°17.179 2°52.573 8.832607 3.427971 31.756503  
2002-03-25 07:58:40 51°17.196 2°52.559 8.818232 3.429073 31.769296  
2002-03-25 07:58:45 51°17.213 2°52.548 8.862493 3.42757 31.75458  
2002-03-25 07:58:50 51°17.23 2°52.534 8.862493 3.42757 31.75458  
2002-03-25 07:58:55 51°17.247 2°52.522 8.849843 3.429574 31.779573  
2002-03-25 07:59:00 51°17.264 2°52.509 8.862636 3.430375 31.790745  
2002-03-25 07:59:05 51°17.281 2°52.497 8.772603 3.429173 31.779849  
2002-03-25 07:59:10 51°17.299 2°52.484 8.853806 3.42737 31.763502  
2002-03-25 07:59:16 51°17.319 2°52.47 8.816322 3.430376 31.79881  
2002-03-25 07:59:21 51°17.337 2°52.456 8.816322 3.430376 31.79881  
2002-03-25 07:59:25 51°17.35 2°52.446 8.80266 3.431878 31.821608  
2002-03-25 07:59:31 51°17.371 2°52.431 8.81379 3.432279 31.827199  
2002-03-25 07:59:36 51°17.388 2°52.418 8.83552 3.432379 31.832636  
2002-03-25 07:59:40 51°17.402 2°52.409 8.847791 3.432479 31.835871  
2002-03-25 07:59:46 51°17.421 2°52.391 8.794155 3.43298 31.841762  
2002-03-25 07:59:50 51°17.433 2°52.379 8.794155 3.43298 31.841762  
2002-03-25 07:59:56 51°17.45 2°52.356 8.911827 3.431878 31.832623  
2002-03-25 08:00:00 51°17.46 2°52.34 8.757736 3.433882 31.857659  
2002-03-25 08:00:05 51°17.471 2°52.317 8.903719 3.434283 31.864726  
2002-03-25 08:00:10 51°17.482 2°52.294 8.784981 3.435285 31.878721  
2002-03-25 08:00:15 51°17.492 2°52.271 8.789711 3.435585 31.883289  
2002-03-25 08:00:20 51°17.502 2°52.247 8.789711 3.435585 31.883289  
2002-03-25 08:00:25 51°17.512 2°52.223 8.782639 3.434283 31.874292  
2002-03-25 08:00:31 51°17.524 2°52.194 9.488589 3.434483 31.881509  
2002-03-25 08:00:35 51°17.532 2°52.174 10.059715 3.433982 31.88003  
2002-03-25 08:00:40 51°17.542 2°52.15 9.722775 3.434283 31.887546  
2002-03-25 08:00:45 51°17.552 2°52.125 9.715992 3.434884 31.895951  
2002-03-25 08:00:50 51°17.562 2°52.1 9.715992 3.434884 31.895951  
2002-03-25 08:00:56 51°17.574 2°52.07 9.908796 3.434684 31.893886  
2002-03-25 08:01:01 51°17.583 2°52.045 9.713825 3.43799 31.930908  
2002-03-25 08:01:05 51°17.591 2°52.025 9.675421 3.435585 31.907601  
2002-03-25 08:01:10 51°17.601 2°52 9.753761 3.436487 31.916894  
2002-03-25 08:01:15 51°17.611 2°51.976 9.603735 3.436487 31.916156  
2002-03-25 08:01:20 51°17.62 2°51.95 9.603735 3.436487 31.916156  
2002-03-25 08:01:24 51°17.628 2°51.93 9.645577 3.439292 31.945808  
2002-03-25 08:01:31 51°17.641 2°51.895 9.762658 3.438491 31.939023  
2002-03-25 08:01:35 51°17.649 2°51.875 9.603829 3.438991 31.945663  
2002-03-25 08:01:40 51°17.659 2°51.85 9.529419 3.439292 31.950977  
2002-03-25 08:01:45 51°17.669 2°51.825 9.52956 3.440093 31.961456  
2002-03-25 08:01:51 51°17.68 2°51.795 9.52956 3.440093 31.961456  
2002-03-25 08:01:56 51°17.69 2°51.77 9.449957 3.443299 31.993036  
2002-03-25 08:02:00 51°17.697 2°51.75 9.832241 3.444 31.998789  
2002-03-25 08:02:05 51°17.707 2°51.725 9.598261 3.442498 31.983293  
2002-03-25 08:02:11 51°17.719 2°51.695 9.51619 3.446204 32.020778  
2002-03-25 08:02:16 51°17.729 2°51.67 9.710857 3.444301 32.001888  
2002-03-25 08:02:20 51°17.737 2°51.65 9.710857 3.444301 32.001888  
2002-03-25 08:02:25 51°17.747 2°51.626 9.438935 3.444401 32.003661  
2002-03-25 08:02:30 51°17.756 2°51.6 9.626853 3.445804 32.017385  
2002-03-25 08:02:35 51°17.766 2°51.575 9.356994 3.448408 32.047954  
2002-03-25 08:02:40 51°17.776 2°51.55 9.818886 3.447106 32.038963  
2002-03-25 08:02:45 51°17.786 2°51.526 9.779508 3.450512 32.072622  
2002-03-25 08:02:51 51°17.797 2°51.495 9.779508 3.450512 32.072622  
2002-03-25 08:02:55 51°17.805 2°51.475 9.737799 3.446305 32.033657  
2002-03-25 08:03:00 51°17.815 2°51.45 9.856406 3.448308 32.056554  
2002-03-25 08:03:06 51°17.826 2°51.42 9.73568 3.449009 32.065273  
2002-03-25 08:03:10 51°17.834 2°51.4 9.656045 3.450011 32.077837  
2002-03-25 08:03:15 51°17.844 2°51.375 9.701387 3.451614 32.09438  
2002-03-25 08:03:20 51°17.854 2°51.351 9.701387 3.451614 32.09438  
2002-03-25 08:03:25 51°17.864 2°51.325 9.695969 3.449711 32.07696  
2002-03-25 08:03:30 51°17.873 2°51.3 9.695309 3.453718 32.122039  
2002-03-25 08:03:36 51°17.885 2°51.27 9.654913 3.453518 32.119971  
2002-03-25 08:03:40 51°17.893 2°51.25 9.807315 3.45472 32.134613  
2002-03-25 08:03:46 51°17.905 2°51.22 9.655668 3.450913 32.097535  
2002-03-25 08:03:51 51°17.915 2°51.195 9.655668 3.450913 32.097535  
2002-03-25 08:03:56 51°17.925 2°51.17 9.772731 3.452616 32.115862  
2002-03-25 08:04:01 51°17.934 2°51.145 9.343351 3.451414 32.104192  
2002-03-25 08:04:05 51°17.942 2°51.125 9.652745 3.456122 32.152814  
2002-03-25 08:04:11 51°17.954 2°51.094 9.767506 3.455622 32.150617  
2002-03-25 08:04:15 51°17.961 2°51.074 9.65331 3.453918 32.133771  
2002-03-25 08:04:20 51°17.971 2°51.049 9.65331 3.453918 32.133771  
2002-03-25 08:04:25 51°17.981 2°51.024 9.730829 3.454319 32.138654  
2002-03-25 08:04:30 51°17.99 2°50.998 9.726967 3.454319 32.138654  
2002-03-25 08:04:36 51°18.002 2°50.968 9.648595 3.456423 32.162616  
2002-03-25 08:04:40 51°18.01 2°50.948 9.569467 3.45462 32.143245  
2002-03-25 08:04:45 51°18.02 2°50.923 9.757103 3.456724 32.167209  
2002-03-25 08:04:50 51°18.03 2°50.898 9.757103 3.456724 32.167209  
2002-03-25 08:04:56 51°18.042 2°50.868 9.639541 3.457826 32.177849  
2002-03-25 08:05:00 51°18.05 2°50.848 9.755173 3.459328 32.194119  
2002-03-25 08:05:05 51°18.059 2°50.823 9.519733 3.456924 32.172257  
2002-03-25 08:05:11 51°18.072 2°50.793 9.823636 3.456423 32.167082  
2002-03-25 08:05:15 51°18.079 2°50.772 9.750371 3.456022 32.163687  
2002-03-25 08:05:20 51°18.09 2°50.748 9.750371 3.456022 32.163687  
2002-03-25 08:05:25 51°18.099 2°50.722 9.940538 3.457826 32.186788  
2002-03-25 08:05:31 51°18.111 2°50.692 9.435765 3.456924 32.178961  
2002-03-25 08:05:36 51°18.121 2°50.667 9.972593 3.453418 32.146451  
2002-03-25 08:05:41 51°18.131 2°50.642 9.431649 3.457926 32.196022  
2002-03-25 08:05:45 51°18.138 2°50.621 9.702707 3.457625 32.195152  
2002-03-25 08:05:50 51°18.148 2°50.597 9.702707 3.457625 32.195152  
2002-03-25 08:05:56 51°18.159 2°50.566 8.92785 3.456223 32.182891  
2002-03-25 08:06:00 51°18.168 2°50.546 9.964757 3.457225 32.191756  
2002-03-25 08:06:06 51°18.179 2°50.515 9.654065 3.457024 32.193412  
2002-03-25 08:06:10 51°18.187 2°50.495 9.963115 3.457024 32.194904  
2002-03-25 08:06:15 51°18.196 2°50.469 9.53608 3.456223 32.188855  
2002-03-25 08:06:20 51°18.207 2°50.444 9.53608 3.456223 32.188855  
2002-03-25 08:06:25 51°18.216 2°50.418 9.459511 3.454019 32.166069  
2002-03-25 08:06:30 51°18.226 2°50.394 10.225852 3.452617 32.153805  
2002-03-25 08:06:35 51°18.235 2°50.367 9.841269 3.454921 32.179117  
2002-03-25 08:06:40 51°18.246 2°50.343 9.143585 3.455121 32.184917  
2002-03-25 08:06:45 51°18.255 2°50.317 9.683198 3.45442 32.179903  
2002-03-25 08:06:51 51°18.268 2°50.287 9.683198 3.45442 32.179903  
2002-03-25 08:06:56 51°18.276 2°50.261 9.762564 3.453318 32.170744  
2002-03-25 08:07:00 51°18.285 2°50.241 9.793624 3.453218 32.171199  
2002-03-25 08:07:05 51°18.295 2°50.215 9.835345 3.453017 32.170618  
2002-03-25 08:07:10 51°18.305 2°50.191 10.085576 3.451014 32.151387  
2002-03-25 08:07:15 51°18.314 2°50.165 9.619163 3.451014 32.154368  
2002-03-25 08:07:20 51°18.325 2°50.14 9.619163 3.451014 32.154368  
2002-03-25 08:07:26 51°18.336 2°50.109 9.05594 3.452116 32.165766  
2002-03-25 08:07:30 51°18.345 2°50.089 9.088197 3.451415 32.160004  
2002-03-25 08:07:36 51°18.356 2°50.058 9.400368 3.447908 32.126718  
2002-03-25 08:07:40 51°18.364 2°50.038 9.089814 3.449111 32.140642  
2002-03-25 08:07:45 51°18.374 2°50.013 9.164445 3.450213 32.154278  
2002-03-25 08:07:50 51°18.383 2°49.987 9.164445 3.450213 32.154278  
2002-03-25 08:07:55 51°18.393 2°49.962 9.164065 3.449411 32.145242  
2002-03-25 08:08:00 51°18.403 2°49.936 8.929519 3.44901 32.144823  
2002-03-25 08:08:05 51°18.413 2°49.911 9.240318 3.44901 32.145568  
2002-03-25 08:08:10 51°18.423 2°49.886 9.312927 3.447107 32.128112  
2002-03-25 08:08:15 51°18.433 2°49.861 9.66505 3.445304 32.110946  
2002-03-25 08:08:20 51°18.442 2°49.835 9.66505 3.445304 32.110946  
2002-03-25 08:08:25 51°18.453 2°49.81 9.704591 3.444803 32.106509  
2002-03-25 08:08:30 51°18.462 2°49.784 9.503194 3.446807 32.130219  
2002-03-25 08:08:35 51°18.473 2°49.76 9.506455 3.446206 32.123999  
2002-03-25 08:08:40 51°18.482 2°49.734 9.690031 3.445705 32.121797  
2002-03-25 08:08:45 51°18.493 2°49.709 9.534946 3.442098 32.084481  
2002-03-25 08:08:50 51°18.502 2°49.683 9.534946 3.442098 32.084481  
2002-03-25 08:08:55 51°18.513 2°49.659 9.724235 3.442499 32.090116  
2002-03-25 08:09:00 51°18.522 2°49.632 9.571781 3.444102 32.106701  
2002-03-25 08:09:05 51°18.533 2°49.608 9.88014 3.443902 32.107607  
2002-03-25 08:09:10 51°18.542 2°49.582 9.563518 3.442599 32.09562  
2002-03-25 08:09:15 51°18.553 2°49.558 9.518316 3.441397 32.084669  
2002-03-25 08:09:21 51°18.564 2°49.527 9.518316 3.441397 32.084669  
2002-03-25 08:09:25 51°18.572 2°49.507 9.477952 3.441197 32.085574  
2002-03-25 08:09:30 51°18.582 2°49.482 9.359315 3.440295 32.078477  
2002-03-25 08:09:35 51°18.592 2°49.457 9.778567 3.438993 32.067231  
2002-03-25 08:09:40 51°18.602 2°49.432 9.421098 3.437691 32.05673  
2002-03-25 08:09:46 51°18.614 2°49.402 9.537922 3.436288 32.044446  
2002-03-25 08:09:50 51°18.621 2°49.381 9.537922 3.436288 32.044446  
2002-03-25 08:09:55 51°18.631 2°49.357 9.37859 3.434084 32.02461  
2002-03-25 08:10:00 51°18.641 2°49.332 9.879435 3.433283 32.020033  
2002-03-25 08:10:05 51°18.651 2°49.307 9.368551 3.432782 32.017822  
2002-03-25 08:10:10 51°18.66 2°49.282 9.438273 3.423967 31.930293  
2002-03-25 08:10:15 51°18.67 2°49.257 9.595476 3.426772 31.966003  
2002-03-25 08:10:21 51°18.681 2°49.226 9.595476 3.426772 31.966003  
2002-03-25 08:10:25 51°18.69 2°49.207 9.514725 3.427974 31.98142  
2002-03-25 08:10:31 51°18.701 2°49.177 9.4378 3.427173 31.976837  
2002-03-25 08:10:35 51°18.709 2°49.157 9.359599 3.424468 31.951801  
2002-03-25 08:10:40 51°18.719 2°49.132 9.203959 3.424969 31.960701  
2002-03-25 08:10:45 51°18.73 2°49.109 9.670848 3.422865 31.943371  
2002-03-25 08:10:49 51°18.738 2°49.089 9.670848 3.422865 31.943371  
2002-03-25 08:10:56 51°18.753 2°49.055 9.439834 3.423266 31.952719  
2002-03-25 08:11:00 51°18.761 2°49.035 9.489345 3.423266 31.956434  
2002-03-25 08:11:05 51°18.772 2°49.012 9.371534 3.424067 31.966222  
2002-03-25 08:11:10 51°18.782 2°48.987 9.649727 3.42557 31.98179  
2002-03-25 08:11:15 51°18.792 2°48.963 9.379347 3.427073 31.998104  
2002-03-25 08:11:20 51°18.803 2°48.939 9.379347 3.427073 31.998104  
2002-03-25 08:11:25 51°18.812 2°48.914 9.65364 3.429277 32.020941  
2002-03-25 08:11:31 51°18.825 2°48.885 9.463861 3.432582 32.054456  
2002-03-25 08:11:35 51°18.833 2°48.865 9.462726 3.436189 32.091089  
2002-03-25 08:11:39 51°18.842 2°48.846 9.92373 3.437691 32.104426  
2002-03-25 08:11:44 51°18.851 2°48.821 9.666182 3.439695 32.121461  
2002-03-25 08:11:51 51°18.866 2°48.788 9.666182 3.439695 32.121461  
2002-03-25 08:11:56 51°18.876 2°48.763 9.557285 3.440997 32.134213  
2002-03-25 08:12:00 51°18.885 2°48.744 9.602178 3.445806 32.18107  
2002-03-25 08:12:06 51°18.896 2°48.714 9.641993 3.448611 32.208653  
2002-03-25 08:12:10 51°18.905 2°48.695 9.261668 3.451115 32.232373  
2002-03-25 08:12:15 51°18.914 2°48.669 9.260293 3.452217 32.240801  
2002-03-25 08:12:20 51°18.925 2°48.646 9.260293 3.452217 32.240801  
2002-03-25 08:12:24 51°18.933 2°48.626 9.534284 3.454922 32.265846  
2002-03-25 08:12:31 51°18.948 2°48.592 9.531639 3.457627 32.29014  
2002-03-25 08:12:35 51°18.955 2°48.571 9.951898 3.457426 32.284312  
2002-03-25 08:12:40 51°18.966 2°48.548 9.531119 3.460932 32.315408  
2002-03-25 08:12:45 51°18.975 2°48.522 9.680323 3.466442 32.368024  
2002-03-25 08:12:51 51°18.988 2°48.494 9.680323 3.466442 32.368024  
2002-03-25 08:12:55 51°18.995 2°48.472 9.564463 3.465741 32.357747  
2002-03-25 08:13:00 51°19.006 2°48.448 9.678532 3.467144 32.371535  
2002-03-25 08:13:06 51°19.016 2°48.417 9.604726 3.465941 32.358321  
2002-03-25 08:13:10 51°19.025 2°48.398 9.367035 3.469348 32.394385  
2002-03-25 08:13:15 51°19.033 2°48.372 9.673535 3.469648 32.397501  
2002-03-25 08:13:20 51°19.043 2°48.347 9.673535 3.469648 32.397501  
2002-03-25 08:13:25 51°19.052 2°48.321 9.558844 3.468546 32.38758  
2002-03-25 08:13:31 51°19.063 2°48.29 9.670377 3.469047 32.393525  
2002-03-25 08:13:34 51°19.069 2°48.274 9.478756 3.469147 32.398326  
2002-03-25 08:13:40 51°19.079 2°48.243 9.557427 3.465541 32.360179  
2002-03-25 08:13:44 51°19.087 2°48.223 9.401457 3.468346 32.390016  
2002-03-25 08:13:50 51°19.097 2°48.192 9.401457 3.468346 32.390016  
2002-03-25 08:13:56 51°19.108 2°48.161 9.481971 3.468145 32.389443  
2002-03-25 08:14:00 51°19.115 2°48.14 9.868862 3.468346 32.393025  
2002-03-25 08:14:05 51°19.124 2°48.114 9.562668 3.468246 32.391986  
2002-03-25 08:14:09 51°19.131 2°48.093 9.522852 3.468546 32.396608  
2002-03-25 08:14:16 51°19.144 2°48.057 9.293728 3.466543 32.37583  
2002-03-25 08:14:20 51°19.151 2°48.036 9.293728 3.466543 32.37583  
2002-03-25 08:14:25 51°19.161 2°48.011 9.758751 3.468947 32.401517  
2002-03-25 08:14:29 51°19.168 2°47.99 9.524127 3.469949 32.411907  
2002-03-25 08:14:36 51°19.183 2°47.956 9.296857 3.471351 32.424948  
2002-03-25 08:14:40 51°19.191 2°47.936 9.684093 3.472854 32.439781  
2002-03-25 08:14:46 51°19.206 2°47.908 9.726826 3.473155 32.442899  
2002-03-25 08:14:50 51°19.214 2°47.889 9.726826 3.473155 32.442899  
2002-03-25 08:14:56 51°19.229 2°47.862 9.572111 3.471552 32.424013  
2002-03-25 08:15:00 51°19.239 2°47.843 9.648548 3.473956 32.447443  
2002-03-25 08:15:04 51°19.249 2°47.825 9.573292 3.470951 32.417026  
2002-03-25 08:15:10 51°19.263 2°47.797 9.537071 3.472153 32.427234  
2002-03-25 08:15:14 51°19.273 2°47.779 9.420246 3.474156 32.445753  
2002-03-25 08:15:19 51°19.286 2°47.756 9.420246 3.474156 32.445753  
2002-03-25 08:15:24 51°19.298 2°47.733 9.690503 3.472854 32.432247  
2002-03-25 08:15:30 51°19.313 2°47.705 9.653263 3.471351 32.416665  
2002-03-25 08:15:36 51°19.328 2°47.679 9.379253 3.472754 32.428949  
2002-03-25 08:15:39 51°19.335 2°47.664 9.576077 3.472553 32.426118  
2002-03-25 08:15:44 51°19.347 2°47.64 9.500784 3.474557 32.446141  
2002-03-25 08:15:50 51°19.361 2°47.612 9.500784 3.474557 32.446141  
2002-03-25 08:15:55 51°19.372 2°47.589 9.539717 3.473054 32.429053  
2002-03-25 08:15:59 51°19.383 2°47.57 9.654583 3.47616 32.461256  
2002-03-25 08:16:06 51°19.398 2°47.537 9.657978 3.47636 32.463334  
2002-03-25 08:16:10 51°19.409 2°47.518 9.624211 3.475459 32.453984  
2002-03-25 08:16:14 51°19.417 2°47.498 9.73761 3.475459 32.455491  
2002-03-25 08:16:19 51°19.43 2°47.475 9.73761 3.475459 32.455491  
2002-03-25 08:16:26 51°19.445 2°47.441 9.62506 3.475659 32.456062  
2002-03-25 08:16:30 51°19.455 2°47.423 9.818321 3.473255 32.430378  
2002-03-25 08:16:35 51°19.466 2°47.398 9.197264 3.477663 32.476086  
2002-03-25 08:16:40 51°19.478 2°47.375 9.433021 3.475459 32.451723  
2002-03-25 08:16:44 51°19.487 2°47.355 9.662127 3.477562 32.472031  
2002-03-25 08:16:50 51°19.501 2°47.327 9.662127 3.477562 32.472031  
2002-03-25 08:16:54 51°19.511 2°47.307 9.508771 3.477462 32.46873  
2002-03-25 08:16:59 51°19.522 2°47.283 9.545148 3.47626 32.457019  
2002-03-25 08:17:04 51°19.534 2°47.26 9.545904 3.47636 32.455044  
2002-03-25 08:17:10 51°19.548 2°47.232 9.701105 3.472854 32.417943  
2002-03-25 08:17:14 51°19.558 2°47.213 9.504896 3.475759 32.448059  
2002-03-25 08:17:19 51°19.569 2°47.189 9.504896 3.475759 32.448059  
2002-03-25 08:17:23 51°19.58 2°47.171 9.312785 3.475258 32.442867  
2002-03-25 08:17:29 51°19.593 2°47.141 9.541653 3.47085 32.396424  
2002-03-25 08:17:35 51°19.607 2°47.113 9.621852 3.474557 32.43635  
2002-03-25 08:17:40 51°19.618 2°47.089 9.350125 3.47055 32.394813  
2002-03-25 08:17:46 51°19.633 2°47.061 9.62322 3.471151 32.400291  
2002-03-25 08:17:51 51°19.645 2°47.037 9.62322 3.471151 32.400291  
2002-03-25 08:17:55 51°19.655 2°47.019 9.470623 3.473355 32.42464  
2002-03-25 08:18:00 51°19.666 2°46.994 9.587547 3.474757 32.440686  
2002-03-25 08:18:04 51°19.676 2°46.976 9.552091 3.474757 32.440686  
2002-03-25 08:18:10 51°19.69 2°46.947 9.899496 3.474256 32.436999  
2002-03-25 08:18:14 51°19.7 2°46.929 9.245348 3.474958 32.443516  
2002-03-25 08:18:20 51°19.713 2°46.9 9.245348 3.474958 32.443516  
2002-03-25 08:18:25 51°19.726 2°46.878 9.477716 3.475358 32.447671  
2002-03-25 08:18:29 51°19.734 2°46.858 9.402403 3.475358 32.444658  
2002-03-25 08:18:36 51°19.752 2°46.826 9.479229 3.477362 32.466184  
2002-03-25 08:18:40 51°19.761 2°46.806 9.518788 3.477662 32.467793  
2002-03-25 08:18:45 51°19.772 2°46.782 9.98132 3.477562 32.465247  
2002-03-25 08:18:50 51°19.784 2°46.759 9.98132 3.477562 32.465247  
2002-03-25 08:18:55 51°19.795 2°46.735 9.904475 3.482371 32.51435  
2002-03-25 08:18:59 51°19.805 2°46.717 9.790566 3.479866 32.48612  
2002-03-25 08:19:05 51°19.818 2°46.688 10.055357 3.480668 32.493675  
2002-03-25 08:19:10 51°19.831 2°46.665 9.671838 3.484074 32.528236  
2002-03-25 08:19:14 51°19.84 2°46.645 9.671178 3.481469 32.501229  
2002-03-25 08:19:19 51°19.852 2°46.623 9.671178 3.481469 32.501229  
2002-03-25 08:19:25 51°19.866 2°46.594 9.593683 3.484174 32.52852  
2002-03-25 08:19:30 51°19.879 2°46.572 9.744109 3.483774 32.524365  
2002-03-25 08:19:35 51°19.89 2°46.547 9.592409 3.484876 32.535791  
2002-03-25 08:19:39 51°19.899 2°46.529 9.564368 3.486278 32.55109  
2002-03-25 08:19:44 51°19.911 2°46.505 9.663777 3.486679 32.556756  
2002-03-25 08:19:50 51°19.925 2°46.478 9.663777 3.486679 32.556756  
2002-03-25 08:19:54 51°19.934 2°46.458 9.431223 3.482872 32.51728  
2002-03-25 08:19:59 51°19.945 2°46.436 9.504329 3.483373 32.521719  
2002-03-25 08:20:04 51°19.956 2°46.412 9.234386 3.486879 32.558079  
2002-03-25 08:20:09 51°19.968 2°46.39 9.159314 3.48698 32.559873  
2002-03-25 08:20:15 51°19.981 2°46.362 9.199259 3.485477 32.546556  
2002-03-25 08:20:19 51°19.991 2°46.344 9.199259 3.485477 32.546556  
2002-03-25 08:20:24 51°20.002 2°46.321 9.247768 3.483874 32.529178  
2002-03-25 08:20:29 51°20.013 2°46.298 9.288322 3.482972 32.522848  
2002-03-25 08:20:35 51°20.025 2°46.27 9.372529 3.484475 32.538432  
2002-03-25 08:20:40 51°20.035 2°46.246 9.260245 3.485477 32.552601  
2002-03-25 08:20:44 51°20.042 2°46.226 9.145344 3.486379 32.563465  
2002-03-25 08:20:49 51°20.05 2°46.201 9.145344 3.486379 32.563465  
2002-03-25 08:20:55 51°20.059 2°46.17 9.11207 3.492991 32.629793  
2002-03-25 08:20:59 51°20.064 2°46.149 9.424978 3.500204 32.701612  
2002-03-25 08:21:06 51°20.073 2°46.112 9.313022 3.504913 32.747443  
2002-03-25 08:21:10 51°20.078 2°46.091 9.547652 3.509221 32.789878  
2002-03-25 08:21:15 51°20.084 2°46.065 9.742084 3.519039 32.889531  
2002-03-25 08:21:20 51°20.089 2°46.037 9.742084 3.519039 32.889531  
2002-03-25 08:21:26 51°20.094 2°46.005 9.43463 3.524349 32.940091  
2002-03-25 08:21:30 51°20.097 2°45.982 9.895644 3.526553 32.959923  
2002-03-25 08:21:34 51°20.101 2°45.961 9.666276 3.532565 33.018531  
2002-03-25 08:21:39 51°20.104 2°45.933 9.822836 3.535971 33.049316  
2002-03-25 08:21:44 51°20.107 2°45.905 9.396155 3.537474 33.062626  
2002-03-25 08:21:48 51°20.11 2°45.883 9.396155 3.537474 33.062626  
2002-03-25 08:21:55 51°20.115 2°45.844 9.43463 3.54078 33.095435  
2002-03-25 08:21:59 51°20.117 2°45.822 9.241884 3.539277 33.079057  
2002-03-25 08:22:04 51°20.121 2°45.794 9.512315 3.543485 33.121234  
2002-03-25 08:22:09 51°20.124 2°45.766 9.359504 3.545389 33.139473  
2002-03-25 08:22:15 51°20.129 2°45.733 9.667407 3.54619 33.146263  
2002-03-25 08:22:19 51°20.131 2°45.71 9.667407 3.54619 33.146263  
2002-03-25 08:22:25 51°20.136 2°45.677 9.513827 3.547293 33.157713  
2002-03-25 08:22:30 51°20.14 2°45.65 9.937534 3.546491 33.147848  
2002-03-25 08:22:34 51°20.143 2°45.627 9.860261 3.547793 33.161379  
2002-03-25 08:22:39 51°20.148 2°45.6 9.35652 3.548595 33.169707  
2002-03-25 08:22:44 51°20.152 2°45.572 9.35832 3.548795 33.171019  
2002-03-25 08:22:50 51°20.158 2°45.539 9.35832 3.548795 33.171019  
2002-03-25 08:22:55 51°20.162 2°45.511 8.813838 3.548896 33.17206  
2002-03-25 08:22:59 51°20.166 2°45.488 8.773081 3.546291 33.144998  
2002-03-25 08:23:04 51°20.17 2°45.46 8.697423 3.549296 33.176224  
2002-03-25 08:23:09 51°20.175 2°45.432 8.735311 3.549397 33.177265  
2002-03-25 08:23:15 51°20.18 2°45.399 8.694169 3.549196 33.174414  
2002-03-25 08:23:19 51°20.184 2°45.377 8.694169 3.549196 33.174414  
2002-03-25 08:23:26 51°20.19 2°45.337 8.694791 3.549196 33.174414  
2002-03-25 08:23:30 51°20.194 2°45.315 8.696944 3.550198 33.186363  
2002-03-25 08:23:35 51°20.199 2°45.287 8.696083 3.549897 33.18247  
2002-03-25 08:23:41 51°20.204 2°45.253 8.88893 3.547994 33.162692  
2002-03-25 08:23:44 51°20.206 2°45.236 8.771503 3.549397 33.177265  
2002-03-25 08:23:50 51°20.212 2°45.203 8.771503 3.549397 33.177265  
2002-03-25 08:23:55 51°20.216 2°45.174 8.733828 3.550298 33.186634  
2002-03-25 08:23:59 51°20.22 2°45.152 8.731341 3.548094 33.163733  
2002-03-25 08:24:04 51°20.224 2°45.124 8.694934 3.548595 33.169707  
2002-03-25 08:24:10 51°20.23 2°45.091 8.734832 3.549196 33.176722  
2002-03-25 08:24:15 51°20.234 2°45.063 8.77179 3.547292 33.156175  
2002-03-25 08:24:20 51°20.238 2°45.035 8.77179 3.547292 33.156175  
2002-03-25 08:24:24 51°20.241 2°45.012 8.771503 3.549898 33.184009  
2002-03-25 08:24:31 51°20.248 2°44.973 8.850464 3.546491 33.148617  
2002-03-25 08:24:35 51°20.251 2°44.95 8.734258 3.550098 33.187631  
2002-03-25 08:24:39 51°20.255 2°44.928 8.696131 3.549497 33.181384  
2002-03-25 08:24:44 51°20.259 2°44.899 8.773654 3.548294 33.166584  
2002-03-25 08:24:50 51°20.265 2°44.866 8.773654 3.548294 33.166584  
2002-03-25 08:24:56 51°20.27 2°44.832 8.811067 3.548094 33.16681  
2002-03-25 08:24:59 51°20.273 2°44.815 8.693451 3.547493 33.159026  
2002-03-25 08:25:04 51°20.277 2°44.787 8.695126 3.550298 33.189713  
2002-03-25 08:25:10 51°20.283 2°44.753 8.694934 3.550198 33.188672  
2002-03-25 08:25:16 51°20.288 2°44.719 8.847074 3.550298 33.188174  
2002-03-25 08:25:20 51°20.292 2°44.696 8.847074 3.550298 33.188174  
2002-03-25 08:25:24 51°20.295 2°44.674 8.729428 3.550499 33.190256  
2002-03-25 08:25:30 51°20.301 2°44.64 8.769687 3.550098 33.186861  
2002-03-25 08:25:35 51°20.305 2°44.612 8.689383 3.548294 33.168123  
2002-03-25 08:25:39 51°20.309 2°44.589 8.690101 3.547793 33.163687  
2002-03-25 08:25:44 51°20.314 2°44.561 8.693355 3.550799 33.193379  
2002-03-25 08:25:50 51°20.319 2°44.527 8.693355 3.550799 33.193379  
2002-03-25 08:25:55 51°20.324 2°44.498 8.689239 3.550198 33.187902  
2002-03-25 08:26:00 51°20.328 2°44.47 8.689766 3.546691 33.153774  
2002-03-25 08:26:04 51°20.332 2°44.448 8.692542 3.549296 33.180842  
2002-03-25 08:26:10 51°20.338 2°44.414 8.692829 3.549998 33.189669  
2002-03-25 08:26:16 51°20.343 2°44.379 8.692446 3.550499 33.194875  
2002-03-25 08:26:20 51°20.347 2°44.357 8.692446 3.550499 33.194875  
2002-03-25 08:26:24 51°20.35 2°44.334 8.770595 3.547493 33.162872  
2002-03-25 08:26:30 51°20.357 2°44.301 8.688426 3.550799 33.196459  
2002-03-25 08:26:35 51°20.361 2°44.272 8.688569 3.550298 33.192023  
2002-03-25 08:26:40 51°20.366 2°44.244 8.729858 3.547994 33.169616  
2002-03-25 08:26:44 51°20.369 2°44.221 8.726175 3.550399 33.193834  
2002-03-25 08:26:50 51°20.375 2°44.188 8.726175 3.550399 33.193834  
2002-03-25 08:26:55 51°20.379 2°44.159 8.922271 3.546792 33.156354  
2002-03-25 08:26:59 51°20.383 2°44.136 8.999953 3.550699 33.196958  
2002-03-25 08:27:04 51°20.388 2°44.108 8.684741 3.547092 33.159477  
2002-03-25 08:27:11 51°20.394 2°44.069 8.762947 3.550298 33.192793  
2002-03-25 08:27:15 51°20.398 2°44.046 8.682443 3.548996 33.180027  
2002-03-25 08:27:19 51°20.401 2°44.023 8.682443 3.548996 33.180027  
2002-03-25 08:27:24 51°20.406 2°43.995 8.721488 3.54599 33.149563  
2002-03-25 08:27:30 51°20.411 2°43.961 8.722636 3.549597 33.187814  
2002-03-25 08:27:35 51°20.415 2°43.932 8.681582 3.549397 33.186502  
2002-03-25 08:27:40 51°20.421 2°43.904 8.72034 3.546691 33.159159  
2002-03-25 08:27:44 51°20.424 2°43.882 8.679188 3.545088 33.14327  
2002-03-25 08:27:50 51°20.43 2°43.848 8.679188 3.545088 33.14327  
2002-03-25 08:27:56 51°20.435 2°43.814 8.72034 3.549998 33.19583  
2002-03-25 08:27:59 51°20.438 2°43.797 8.758549 3.549797 33.193747  
2002-03-25 08:28:04 51°20.442 2°43.768 8.835377 3.549898 33.195559  
2002-03-25 08:28:11 51°20.45 2°43.729 8.794442 3.549597 33.193205  
2002-03-25 08:28:15 51°20.453 2°43.707 8.755202 3.549497 33.193704  
2002-03-25 08:28:21 51°20.459 2°43.673 8.755202 3.549497 33.193704  
2002-03-25 08:28:24 51°20.462 2°43.656 8.674306 3.549397 33.191892  
2002-03-25 08:28:31 51°20.469 2°43.617 8.670811 3.549196 33.190579  
2002-03-25 08:28:35 51°20.472 2°43.594 8.671625 3.548796 33.187184  
2002-03-25 08:28:39 51°20.476 2°43.572 8.666982 3.548695 33.186142  
2002-03-25 08:28:44 51°20.48 2°43.544 8.706083 3.548595 33.185871  
2002-03-25 08:28:50 51°20.485 2°43.51 8.706083 3.548595 33.185871  
2002-03-25 08:28:55 51°20.49 2°43.482 8.661524 3.54589 33.158522  
2002-03-25 08:28:59 51°20.493 2°43.459 8.699528 3.548194 33.184785  
2002-03-25 08:29:04 51°20.496 2°43.431 8.695652 3.546992 33.172287  
2002-03-25 08:29:11 51°20.502 2°43.391 8.689766 3.547894 33.185512  
2002-03-25 08:29:15 51°20.505 2°43.368 8.767679 3.547593 33.183927  
2002-03-25 08:29:19 51°20.508 2°43.346 8.767679 3.547593 33.183927  
2002-03-25 08:29:24 51°20.512 2°43.317 8.830697 3.547493 33.183656  
2002-03-25 08:29:30 51°20.517 2°43.283 8.685698 3.547092 33.1818  
2002-03-25 08:29:35 51°20.52 2°43.255 8.721392 3.546892 33.182027  
2002-03-25 08:29:40 51°20.524 2°43.226 8.683161 3.546592 33.181213  
2002-03-25 08:29:45 51°20.528 2°43.198 8.684789 3.546592 33.185065  
2002-03-25 08:29:51 51°20.532 2°43.164 8.684789 3.546592 33.185065  
2002-03-25 08:29:55 51°20.535 2°43.141 8.685794 3.54579 33.17827  
2002-03-25 08:30:00 51°20.538 2°43.112 8.685698 3.546992 33.194629  
2002-03-25 08:30:04 51°20.542 2°43.09 8.685841 3.547493 33.202154  
2002-03-25 08:30:10 51°20.546 2°43.056 8.684453 3.545389 33.182579  
2002-03-25 08:30:15 51°20.55 2°43.027 8.729858 3.546792 33.1964  
2002-03-25 08:30:19 51°20.552 2°43.005 8.729858 3.546792 33.1964  
2002-03-25 08:30:24 51°20.556 2°42.976 8.651947 3.548095 33.211493  
2002-03-25 08:30:30 51°20.56 2°42.942 8.736602 3.549898 33.229486  
2002-03-25 08:30:35 51°20.564 2°42.914 8.744349 3.549698 33.227401  
2002-03-25 08:30:40 51°20.568 2°42.886 8.707423 3.552503 33.256592  
2002-03-25 08:30:44 51°20.57 2°42.863 8.75066 3.553305 33.264933  
2002-03-25 08:30:50 51°20.574 2°42.83 8.75066 3.553305 33.264933  
2002-03-25 08:30:55 51°20.577 2°42.801 8.75286 3.554607 33.278488  
2002-03-25 08:30:59 51°20.58 2°42.779 8.679906 3.556411 33.294937  
2002-03-25 08:31:04 51°20.583 2°42.751 8.718426 3.556611 33.294703  
2002-03-25 08:31:10 51°20.586 2°42.717 8.680768 3.560819 33.333853  
2002-03-25 08:31:15 51°20.589 2°42.688 8.681103 3.562522 33.348482  
2002-03-25 08:31:19 51°20.591 2°42.666 8.681103 3.562522 33.348482  
2002-03-25 08:31:24 51°20.594 2°42.638 8.719814 3.564927 33.369634  
2002-03-25 08:31:30 51°20.597 2°42.603 8.68364 3.565728 33.375651  
2002-03-25 08:31:35 51°20.6 2°42.575 8.722062 3.568133 33.396799  
2002-03-25 08:31:40 51°20.603 2°42.547 8.997714 3.569335 33.406985  
2002-03-25 08:31:44 51°20.605 2°42.525 8.722397 3.570438 33.416127  
2002-03-25 08:31:50 51°20.609 2°42.491 8.722397 3.570438 33.416127  
2002-03-25 08:31:55 51°20.612 2°42.462 8.761274 3.571339 33.423959  
2002-03-25 08:31:59 51°20.614 2°42.44 8.681199 3.572441 33.434652  
2002-03-25 08:32:04 51°20.617 2°42.412 8.721631 3.572642 33.435961  
2002-03-25 08:32:10 51°20.62 2°42.378 8.723401 3.573443 33.443526  
2002-03-25 08:32:15 51°20.623 2°42.35 8.683831 3.573944 33.447963  
2002-03-25 08:32:19 51°20.625 2°42.328 8.683831 3.573944 33.447963  
2002-03-25 08:32:24 51°20.628 2°42.3 8.762517 3.574345 33.451357  
2002-03-25 08:32:28 51°20.63 2°42.278 8.840534 3.574746 33.456304  
2002-03-25 08:32:35 51°20.634 2°42.239 8.880437 3.575046 33.459432  
2002-03-25 08:32:39 51°20.637 2°42.216 8.682539 3.574045 33.449782  
2002-03-25 08:32:44 51°20.64 2°42.188 8.720005 3.575247 33.462294  
2002-03-25 08:32:49 51°20.642 2°42.16 8.720005 3.575247 33.462294  
2002-03-25 08:32:55 51°20.646 2°42.127 8.758119 3.575648 33.465688  
2002-03-25 08:32:59 51°20.649 2°42.105 8.680912 3.575848 33.466997  
2002-03-25 08:33:04 51°20.652 2°42.077 8.79793 3.576149 33.469349  
2002-03-25 08:33:10 51°20.655 2°42.044 8.719383 3.576149 33.470125  
2002-03-25 08:33:15 51°20.658 2°42.016 8.682539 3.57665 33.473785  
2002-03-25 08:33:19 51°20.66 2°41.994 8.682539 3.57665 33.473785  
2002-03-25 08:33:24 51°20.663 2°41.966 8.680816 3.57685 33.477424  
2002-03-25 08:33:29 51°20.666 2°41.938 8.759362 3.57685 33.477424  
2002-03-25 08:33:35 51°20.669 2°41.905 8.684453 3.57695 33.480021  
2002-03-25 08:33:39 51°20.672 2°41.883 8.683305 3.577151 33.482107  
2002-03-25 08:33:44 51°20.674 2°41.855 8.684884 3.577451 33.484458  
2002-03-25 08:33:49 51°20.677 2°41.827 8.684884 3.577451 33.484458  
2002-03-25 08:33:54 51°20.68 2°41.799 8.684262 3.577752 33.489141  
2002-03-25 08:33:59 51°20.683 2°41.771 8.683783 3.577852 33.488629  
2002-03-25 08:34:03 51°20.685 2°41.749 8.682587 3.575247 33.461518  
2002-03-25 08:34:09 51°20.689 2°41.715 8.687325 3.578153 33.491758  
2002-03-25 08:34:14 51°20.692 2°41.687 8.802994 3.578052 33.490715  
2002-03-25 08:34:20 51°20.695 2°41.654 8.802994 3.578052 33.490715  
2002-03-25 08:34:24 51°20.698 2°41.631 8.801561 3.577451 33.482904  
2002-03-25 08:34:30 51°20.701 2°41.598 8.920793 3.577551 33.483947  
2002-03-25 08:34:34 51°20.704 2°41.575 8.802086 3.580156 33.51106  
2002-03-25 08:34:40 51°20.708 2°41.541 8.720818 3.578954 33.498546  
2002-03-25 08:34:44 51°20.71 2°41.519 8.801417 3.579555 33.504025  
2002-03-25 08:34:49 51°20.714 2°41.491 8.801417 3.579555 33.504025  
2002-03-25 08:34:54 51°20.716 2°41.463 8.682683 3.580758 33.51654  
2002-03-25 08:34:59 51°20.72 2°41.435 8.797595 3.580858 33.51836  
2002-03-25 08:35:04 51°20.723 2°41.407 8.83934 3.581058 33.519668  
2002-03-25 08:35:10 51°20.726 2°41.373 8.680098 3.580858 33.519138  
2002-03-25 08:35:15 51°20.729 2°41.345 8.760366 3.581359 33.523575  
2002-03-25 08:35:19 51°20.732 2°41.323 8.760366 3.581359 33.523575  
2002-03-25 08:35:24 51°20.735 2°41.295 8.760174 3.580958 33.520181  
2002-03-25 08:35:30 51°20.739 2°41.261 8.683496 3.581158 33.522267  
2002-03-25 08:35:34 51°20.741 2°41.238 8.682587 3.578353 33.493066  
2002-03-25 08:35:40 51°20.745 2°41.204 8.760031 3.576048 33.469083  
2002-03-25 08:35:44 51°20.748 2°41.182 8.799745 3.576149 33.470125  
2002-03-25 08:35:49 51°20.751 2°41.153 8.799745 3.576149 33.470125  
2002-03-25 08:35:54 51°20.754 2°41.125 8.719574 3.57665 33.476893  
2002-03-25 08:35:59 51°20.757 2°41.097 8.680816 3.581158 33.523823  
2002-03-25 08:36:04 51°20.76 2°41.068 8.718857 3.577451 33.485235  
2002-03-25 08:36:09 51°20.764 2°41.04 8.759553 3.577351 33.483415  
2002-03-25 08:36:14 51°20.766 2°41.012 8.679476 3.577551 33.485501  
2002-03-25 08:36:19 51°20.769 2°40.983 8.679476 3.577551 33.485501  
2002-03-25 08:36:24 51°20.771 2°40.955 8.719287 3.578153 33.492535  
2002-03-25 08:36:29 51°20.773 2°40.927 8.677705 3.577351 33.484192  
2002-03-25 08:36:34 51°20.775 2°40.898 8.677992 3.579856 33.509487  
2002-03-25 08:36:39 51°20.776 2°40.87 8.675934 3.581058 33.523558  
2002-03-25 08:36:43 51°20.777 2°40.847 8.71369 3.580858 33.521472  
2002-03-25 08:36:49 51°20.779 2°40.812 8.71369 3.580858 33.521472  
2002-03-25 08:36:55 51°20.781 2°40.778 8.67354 3.580958 33.524071  
2002-03-25 08:37:00 51°20.783 2°40.75 8.750995 3.580958 33.524071  
2002-03-25 08:37:04 51°20.785 2°40.727 8.709528 3.580858 33.523806  
2002-03-25 08:37:09 51°20.787 2°40.698 8.708428 3.580958 33.524849  
2002-03-25 08:37:14 51°20.789 2°40.67 8.670381 3.580958 33.524849  
2002-03-25 08:37:19 51°20.791 2°40.641 8.670381 3.580958 33.524849  
2002-03-25 08:37:24 51°20.793 2°40.612 8.787466 3.581058 33.528227  
2002-03-25 08:37:30 51°20.796 2°40.578 8.706945 3.580157 33.519617  
2002-03-25 08:37:35 51°20.797 2°40.55 8.706658 3.581159 33.530827  
2002-03-25 08:37:39 51°20.799 2°40.527 8.784551 3.58166 33.536822  
2002-03-25 08:37:44 51°20.8 2°40.498 8.704361 3.58206 33.541773  
2002-03-25 08:37:50 51°20.803 2°40.464 8.704361 3.58206 33.541773  
2002-03-25 08:37:55 51°20.805 2°40.435 8.665019 3.582662 33.548033  
2002-03-25 08:37:59 51°20.806 2°40.413 8.704313 3.583163 33.554808  
2002-03-25 08:38:05 51°20.809 2°40.378 8.706083 3.583363 33.557674  
2002-03-25 08:38:08 51°20.81 2°40.361 8.74191 3.583764 33.563406  
2002-03-25 08:38:14 51°20.813 2°40.326 8.821671 3.584064 33.566537  
2002-03-25 08:38:19 51°20.815 2°40.298 8.821671 3.584064 33.566537  
2002-03-25 08:38:24 51°20.817 2°40.269 8.700772 3.584165 33.569139  
2002-03-25 08:38:30 51°20.82 2°40.235 8.740667 3.584465 33.57305  
2002-03-25 08:38:34 51°20.821 2°40.212 8.699911 3.584666 33.575137  
2002-03-25 08:38:39 51°20.823 2°40.183 8.662625 3.583463 33.561834  
2002-03-25 08:38:45 51°20.824 2°40.149 8.69704 3.584966 33.576709  
2002-03-25 08:38:50 51°20.827 2°40.121 8.69704 3.584966 33.576709  
2002-03-25 08:38:54 51°20.828 2°40.098 8.660566 3.585066 33.580091  
2002-03-25 08:39:00 51°20.83 2°40.063 8.65822 3.584265 33.571742  
2002-03-25 08:39:05 51°20.832 2°40.035 8.662481 3.585066 33.580871  
2002-03-25 08:39:10 51°20.835 2°40.006 8.659178 3.585267 33.585298  
2002-03-25 08:39:15 51°20.836 2°39.977 8.655922 3.585267 33.585298  
2002-03-25 08:39:19 51°20.838 2°39.954 8.655922 3.585267 33.585298  
2002-03-25 08:39:24 51°20.84 2°39.926 8.659704 3.585367 33.587122  
2002-03-25 08:39:29 51°20.842 2°39.897 8.697279 3.584064 33.573553  
2002-03-25 08:39:35 51°20.845 2°39.862 8.656448 3.585267 33.586858  
2002-03-25 08:39:40 51°20.847 2°39.833 8.736028 3.585367 33.587902  
2002-03-25 08:39:45 51°20.849 2°39.804 8.697279 3.585367 33.586342  
2002-03-25 08:39:49 51°20.85 2°39.782 8.697279 3.585367 33.586342  
2002-03-25 08:39:54 51°20.853 2°39.753 8.659417 3.585467 33.589726  
2002-03-25 08:39:59 51°20.854 2°39.724 8.738084 3.585567 33.59155  
2002-03-25 08:40:04 51°20.856 2°39.695 8.812357 3.585467 33.591287  
2002-03-25 08:40:09 51°20.859 2°39.667 8.772172 3.585567 33.59155  
2002-03-25 08:40:15 51°20.861 2°39.632 9.861436 3.585567 33.59233  
2002-03-25 08:40:19 51°20.862 2°39.609 9.861436 3.585567 33.59233  
2002-03-25 08:40:24 51°20.864 2°39.58 9.862188 3.585768 33.594418  
2002-03-25 08:40:29 51°20.866 2°39.552 9.681407 3.585768 33.592858  
2002-03-25 08:40:34 51°20.868 2°39.523 9.746887 3.585768 33.594418  
2002-03-25 08:40:39 51°20.87 2°39.494 9.398285 3.585768 33.594418  
2002-03-25 08:40:44 51°20.872 2°39.465 9.785202 3.584265 33.57954  
2002-03-25 08:40:49 51°20.874 2°39.437 9.785202 3.584265 33.57954  
2002-03-25 08:40:54 51°20.876 2°39.408 9.631758 3.585868 33.595462  
2002-03-25 08:40:59 51°20.878 2°39.38 9.7499 3.586269 33.599638  
2002-03-25 08:41:05 51°20.881 2°39.345 9.67231 3.584165 33.576936  
2002-03-25 08:41:09 51°20.882 2°39.323 9.826457 3.586369 33.599121  
2002-03-25 08:41:15 51°20.884 2°39.288 9.865995 3.586569 33.60277  
2002-03-25 08:41:20 51°20.886 2°39.26 9.865995 3.586569 33.60277  
2002-03-25 08:41:25 51°20.888 2°39.231 9.674054 3.58687 33.605121  
2002-03-25 08:41:30 51°20.89 2°39.203 9.558702 3.58697 33.605385  
2002-03-25 08:41:35 51°20.892 2°39.174 9.1337 3.587271 33.607736  
2002-03-25 08:41:40 51°20.894 2°39.146 9.249998 3.587571 33.610087  
2002-03-25 08:41:45 51°20.896 2°39.118 9.293254 3.587571 33.610087  
2002-03-25 08:41:49 51°20.898 2°39.095 9.293254 3.587571 33.610087  
2002-03-25 08:41:54 51°20.9 2°39.067 9.147339 3.587872 33.613219  
2002-03-25 08:41:59 51°20.901 2°39.038 9.187672 3.587972 33.613482  
2002-03-25 08:42:04 51°20.904 2°39.01 9.341361 3.587972 33.612702  
2002-03-25 08:42:10 51°20.906 2°38.976 9.263945 3.588373 33.616097  
2002-03-25 08:42:15 51°20.907 2°38.948 9.807315 3.587972 33.61036  
2002-03-25 08:42:19 51°20.909 2°38.925 9.807315 3.587972 33.61036  
2002-03-25 08:42:25 51°20.912 2°38.891 9.421807 3.588874 33.619755  
2002-03-25 08:42:29 51°20.913 2°38.868 10.269913 3.589475 33.623676  
2002-03-25 08:42:34 51°20.915 2°38.84 9.926172 3.590176 33.626298  
2002-03-25 08:42:39 51°20.917 2°38.811 9.503147 3.590277 33.624999  
2002-03-25 08:42:44 51°20.919 2°38.783 9.617937 3.590978 33.631524  
2002-03-25 08:42:50 51°20.921 2°38.749 9.617937 3.590978 33.631524  
2002-03-25 08:42:55 51°20.923 2°38.721 9.386923 3.591579 33.635444  
2002-03-25 08:42:59 51°20.925 2°38.698 10.080751 3.591479 33.635181  
2002-03-25 08:43:04 51°20.927 2°38.67 10.158746 3.59198 33.638057  
2002-03-25 08:43:10 51°20.929 2°38.635 10.541982 3.59218 33.639363  
2002-03-25 08:43:15 51°20.931 2°38.607 9.272056 3.592381 33.640669  
2002-03-25 08:43:20 51°20.933 2°38.579 9.272056 3.592381 33.640669  
2002-03-25 08:43:25 51°20.935 2°38.551 9.465658 3.59218 33.637021  
2002-03-25 08:43:30 51°20.937 2°38.522 9.699173 3.592681 33.641457  
2002-03-25 08:43:35 51°20.939 2°38.494 9.428148 3.593182 33.646675  
2002-03-25 08:43:39 51°20.941 2°38.472 9.274949 3.593082 33.646412  
2002-03-25 08:43:44 51°20.942 2°38.443 9.854197 3.592882 33.642764  
2002-03-25 08:43:50 51°20.945 2°38.409 9.854197 3.592882 33.642764  
2002-03-25 08:43:55 51°20.947 2°38.381 9.353394 3.593383 33.6472  
2002-03-25 08:44:00 51°20.949 2°38.353 9.587123 3.593282 33.646157  
2002-03-25 08:44:04 51°20.95 2°38.331 9.432737 3.593282 33.645376  
2002-03-25 08:44:10 51°20.953 2°38.297 10.319451 3.593583 33.648506  
2002-03-25 08:44:15 51°20.954 2°38.269 9.319136 3.593483 33.646682  
2002-03-25 08:44:19 51°20.956 2°38.247 9.319136 3.593483 33.646682  
2002-03-25 08:44:24 51°20.958 2°38.219 9.39767 3.593483 33.645901  
2002-03-25 08:44:30 51°20.96 2°38.185 9.242786 3.593583 33.646944  
2002-03-25 08:44:35 51°20.962 2°38.157 9.284434 3.593583 33.646944  
2002-03-25 08:44:39 51°20.963 2°38.134 9.051419 3.593783 33.645908  
2002-03-25 08:44:44 51°20.965 2°38.106 9.288465 3.592381 33.631302  
2002-03-25 08:44:50 51°20.968 2°38.073 9.288465 3.592381 33.631302  
2002-03-25 08:44:55 51°20.969 2°38.045 9.559127 3.593483 33.641217  
2002-03-25 08:45:00 51°20.972 2°38.017 9.714202 3.592982 33.636781  
2002-03-25 08:45:04 51°20.972 2°37.994 9.445037 3.594485 33.650869  
2002-03-25 08:45:10 51°20.976 2°37.961 9.525923 3.594585 33.64957  
2002-03-25 08:45:15 51°20.977 2°37.933 9.446835 3.594485 33.648527  
2002-03-25 08:45:19 51°20.979 2°37.91 9.446835 3.594485 33.648527  
2002-03-25 08:45:24 51°20.981 2°37.882 9.566493 3.593683 33.637841  
2002-03-25 08:45:30 51°20.984 2°37.848 9.681313 3.594885 33.649577  
2002-03-25 08:45:35 51°20.986 2°37.821 9.297236 3.593583 33.635237  
2002-03-25 08:45:40 51°20.989 2°37.793 9.568334 3.595186 33.650365  
2002-03-25 08:45:46 51°20.996 2°37.761 9.760022 3.594284 33.640197  
2002-03-25 08:45:50 51°21.002 2°37.74 9.760022 3.594284 33.640197  
2002-03-25 08:45:55 51°21.011 2°37.716 9.606236 3.595487 33.651153  
2002-03-25 08:45:59 51°21.019 2°37.698 9.878072 3.595587 33.650635  
2002-03-25 08:46:04 51°21.031 2°37.677 9.762234 3.585366 33.542722  
2002-03-25 08:46:10 51°21.047 2°37.654 9.763646 3.596088 33.652728  
2002-03-25 08:46:15 51°21.062 2°37.638 9.95753 3.596188 33.65299  
2002-03-25 08:46:20 51°21.078 2°37.625 9.95753 3.596188 33.65299  
2002-03-25 08:46:24 51°21.092 2°37.617 9.687958 3.594084 33.629531  
2002-03-25 08:46:30 51°21.113 2°37.607 10.071288 3.596388 33.651174  
2002-03-25 08:46:35 51°21.132 2°37.602 9.762093 3.596388 33.650394  
2002-03-25 08:46:40 51°21.15 2°37.6 9.80294 3.595186 33.637102  
2002-03-25 08:46:44 51°21.165 2°37.6 9.643879 3.596488 33.649096  
2002-03-25 08:46:50 51°21.188 2°37.599 9.643879 3.596488 33.649096  
2002-03-25 08:46:55 51°21.207 2°37.597 9.720703 3.59729 33.656657  
2002-03-25 08:46:59 51°21.223 2°37.597 9.413479 3.59739 33.65692  
2002-03-25 08:47:04 51°21.242 2°37.596 9.334301 3.59709 33.654572  
2002-03-25 08:47:10 51°21.266 2°37.596 9.369214 3.596789 33.651444  
2002-03-25 08:47:15 51°21.285 2°37.595 9.134935 3.59739 33.65692  
2002-03-25 08:47:20 51°21.305 2°37.596 9.134935 3.59739 33.65692  
2002-03-25 08:47:24 51°21.32 2°37.596 9.097519 3.59739 33.65926  
2002-03-25 08:47:30 51°21.344 2°37.596 9.173043 3.59729 33.659779  
2002-03-25 08:47:35 51°21.363 2°37.595 9.212647 3.596789 33.656125  
2002-03-25 08:47:39 51°21.379 2°37.596 9.440969 3.596689 33.656643  
2002-03-25 08:47:44 51°21.399 2°37.595 9.1672 3.596789 33.658467  
2002-03-25 08:47:50 51°21.422 2°37.594 9.1672 3.596789 33.658467  
2002-03-25 08:47:55 51°21.442 2°37.593 9.671461 3.596889 33.661071  
2002-03-25 08:48:00 51°21.462 2°37.593 9.706287 3.596789 33.661589  
2002-03-25 08:48:05 51°21.481 2°37.592 9.628409 3.596689 33.662107  
2002-03-25 08:48:10 51°21.501 2°37.59 10.165483 3.596789 33.66315  
2002-03-25 08:48:15 51°21.52 2°37.589 10.049218 3.596889 33.664193  
2002-03-25 08:48:19 51°21.536 2°37.587 10.049218 3.596889 33.664193  
2002-03-25 08:48:24 51°21.555 2°37.584 9.236854 3.596689 33.66445  
2002-03-25 08:48:30 51°21.578 2°37.58 9.777814 3.596589 33.664187  
2002-03-25 08:48:35 51°21.598 2°37.576 9.773578 3.596689 33.666792  
2002-03-25 08:48:39 51°21.613 2°37.573 9.542929 3.596789 33.67096  
2002-03-25 08:48:44 51°21.632 2°37.569 10.001584 3.596789 33.671741  
2002-03-25 08:48:50 51°21.656 2°37.564 10.001584 3.596789 33.671741  
2002-03-25 08:48:55 51°21.675 2°37.561 9.963912 3.596689 33.67226  
2002-03-25 08:49:00 51°21.694 2°37.557 9.771083 3.595386 33.660259  
2002-03-25 08:49:04 51°21.71 2°37.554 9.493505 3.595887 33.666257  
2002-03-25 08:49:10 51°21.733 2°37.55 9.380058 3.596388 33.672255  
2002-03-25 08:49:15 51°21.752 2°37.546 9.957061 3.596288 33.672774  
2002-03-25 08:49:19 51°21.767 2°37.542 9.957061 3.596288 33.672774  
2002-03-25 08:49:24 51°21.787 2°37.538 9.608878 3.596188 33.672512  
2002-03-25 08:49:30 51°21.81 2°37.532 10.03436 3.596188 33.675637  
2002-03-25 08:49:35 51°21.829 2°37.529 9.877132 3.595888 33.673288  
2002-03-25 08:49:40 51°21.848 2°37.524 9.609869 3.594785 33.663371  
2002-03-25 08:49:45 51°21.868 2°37.52 9.724659 3.595888 33.675633  
2002-03-25 08:49:50 51°21.887 2°37.515 9.724659 3.595888 33.675633  
2002-03-25 08:49:55 51°21.906 2°37.512 9.956732 3.595787 33.676934  
2002-03-25 08:49:59 51°21.922 2°37.508 9.767459 3.595787 33.678497  
2002-03-25 08:50:04 51°21.941 2°37.504 9.460173 3.595587 33.677192  
2002-03-25 08:50:10 51°21.964 2°37.499 9.072737 3.595687 33.677454  
2002-03-25 08:50:15 51°21.984 2°37.496 9.457713 3.595988 33.680585  
2002-03-25 08:50:20 51°22.003 2°37.492 9.457713 3.595988 33.680585  
2002-03-25 08:50:25 51°22.023 2°37.489 9.112117 3.595888 33.679541  
2002-03-25 08:50:30 51°22.042 2°37.485 9.383609 3.594685 33.667798  
2002-03-25 08:50:35 51°22.061 2°37.481 9.268973 3.596188 33.681891  
2002-03-25 08:50:40 51°22.08 2°37.475 9.27419 3.595988 33.679021  
2002-03-25 08:50:44 51°22.096 2°37.472 9.622654 3.596188 33.679545  
2002-03-25 08:50:50 51°22.119 2°37.466 9.622654 3.596188 33.679545  
2002-03-25 08:50:55 51°22.138 2°37.461 9.311316 3.596489 33.681895  
2002-03-25 08:50:59 51°22.154 2°37.456 9.314444 3.594886 33.664415  
2002-03-25 08:51:04 51°22.173 2°37.452 10.009651 3.596789 33.685026  
2002-03-25 08:51:10 51°22.196 2°37.445 9.353678 3.59689 33.685288  
2002-03-25 08:51:15 51°22.216 2°37.441 9.702377 3.59699 33.683204  
2002-03-25 08:51:20 51°22.235 2°37.434 9.702377 3.59699 33.683204  
2002-03-25 08:51:24 51°22.25 2°37.431 9.27623 3.596489 33.677987  
2002-03-25 08:51:30 51°22.273 2°37.423 10.280702 3.597891 33.690251  
2002-03-25 08:51:35 51°22.293 2°37.42 9.356947 3.59739 33.684252  
2002-03-25 08:51:39 51°22.308 2°37.413 9.741943 3.596789 33.676428  
2002-03-25 08:51:44 51°22.327 2°37.408 9.744014 3.596689 33.675385  
2002-03-25 08:51:50 51°22.35 2°37.401 9.744014 3.596689 33.675385  
2002-03-25 08:51:55 51°22.369 2°37.396 10.049452 3.598493 33.692604  
2002-03-25 08:52:00 51°22.388 2°37.39 9.627985 3.596689 33.675385  
2002-03-25 08:52:05 51°22.407 2°37.383 10.390775 3.598893 33.695996  
2002-03-25 08:52:10 51°22.426 2°37.377 9.666134 3.599294 33.699388  
2002-03-25 08:52:15 51°22.444 2°37.367 10.239172 3.598493 33.69104  
2002-03-25 08:52:19 51°22.459 2°37.362 10.239172 3.598493 33.69104  
2002-03-25 08:52:24 51°22.477 2°37.35 9.586462 3.583162 33.531454  
2002-03-25 08:52:30 51°22.499 2°37.339 10.236087 3.598292 33.688172  
2002-03-25 08:52:35 51°22.516 2°37.325 9.582355 3.598693 33.693127  
2002-03-25 08:52:39 51°22.53 2°37.315 9.424505 3.599695 33.704344  
2002-03-25 08:52:44 51°22.546 2°37.3 9.266507 3.597791 33.6853  
2002-03-25 08:52:48 51°22.558 2°37.287 9.266507 3.597791 33.6853  
2002-03-25 08:52:54 51°22.577 2°37.268 9.191044 3.600096 33.708518  
2002-03-25 08:52:59 51°22.592 2°37.25 8.954308 3.600096 33.710082  
2002-03-25 08:53:04 51°22.607 2°37.234 9.341266 3.600597 33.716864  
2002-03-25 08:53:09 51°22.621 2°37.214 8.989236 3.599795 33.709298  
2002-03-25 08:53:14 51°22.636 2°37.196 9.686732 3.599394 33.706687  
2002-03-25 08:53:19 51°22.648 2°37.175 9.686732 3.599394 33.706687  
2002-03-25 08:53:25 51°22.666 2°37.153 9.608453 3.599695 33.71373  
2002-03-25 08:53:29 51°22.676 2°37.135 9.644209 3.598593 33.701467  
2002-03-25 08:53:34 51°22.689 2°37.115 9.489393 3.598192 33.698074  
2002-03-25 08:53:39 51°22.701 2°37.093 9.604395 3.599094 33.709815  
2002-03-25 08:53:45 51°22.716 2°37.067 9.838495 3.600397 33.724168  
2002-03-25 08:53:49 51°22.725 2°37.049 9.838495 3.600397 33.724168  
2002-03-25 08:53:54 51°22.736 2°37.027 10.06665 3.598393 33.704072  
2002-03-25 08:53:59 51°22.748 2°37.004 9.681831 3.600497 33.725994  
2002-03-25 08:54:04 51°22.758 2°36.98 9.560638 3.600797 33.730692  
2002-03-25 08:54:09 51°22.768 2°36.956 9.368314 3.600597 33.731736  
2002-03-25 08:54:14 51°22.778 2°36.932 9.446693 3.599795 33.723383  
2002-03-25 08:54:20 51°22.788 2°36.902 9.446693 3.599795 33.723383  
2002-03-25 08:54:25 51°22.797 2°36.877 9.525498 3.600797 33.734607  
2002-03-25 08:54:29 51°22.804 2°36.856 9.910769 3.600096 33.727299  
2002-03-25 08:54:34 51°22.812 2°36.83 9.792354 3.599495 33.721817  
2002-03-25 08:54:39 51°22.82 2°36.805 9.719148 3.598994 33.718162  
2002-03-25 08:54:45 51°22.83 2°36.774 9.985495 3.601098 33.740873  
2002-03-25 08:54:49 51°22.836 2°36.753 9.985495 3.601098 33.740873  
2002-03-25 08:54:54 51°22.844 2°36.727 9.677306 3.600898 33.739568  
2002-03-25 08:54:59 51°22.853 2°36.702 9.447403 3.600497 33.736174  
2002-03-25 08:55:04 51°22.861 2°36.676 9.907058 3.601298 33.743745  
2002-03-25 08:55:09 51°22.87 2°36.651 9.793813 3.600998 33.739829  
2002-03-25 08:55:14 51°22.878 2°36.624 9.445558 3.600397 33.733564  
2002-03-25 08:55:19 51°22.886 2°36.599 9.445558 3.600397 33.733564  
2002-03-25 08:55:24 51°22.893 2°36.573 9.524789 3.601298 33.743745  
2002-03-25 08:55:29 51°22.902 2°36.547 9.872292 3.600597 33.735652  
2002-03-25 08:55:34 51°22.909 2°36.52 9.717123 3.601599 33.746094  
2002-03-25 08:55:39 51°22.917 2°36.495 9.676693 3.601799 33.748183  
2002-03-25 08:55:44 51°22.924 2°36.468 9.445132 3.601399 33.745573  
2002-03-25 08:55:48 51°22.929 2°36.447 9.445132 3.601399 33.745573  
2002-03-25 08:55:54 51°22.937 2°36.414 9.75489 3.601599 33.748445  
2002-03-25 08:56:00 51°22.945 2°36.382 9.639824 3.601198 33.743484  
2002-03-25 08:56:04 51°22.949 2°36.36 9.615295 3.600697 33.739046  
2002-03-25 08:56:09 51°22.955 2°36.334 9.7972 3.601599 33.746878  
2002-03-25 08:56:14 51°22.96 2°36.306 9.483105 3.600597 33.737219  
2002-03-25 08:56:19 51°22.965 2°36.279 9.483105 3.600597 33.737219  
2002-03-25 08:56:24 51°22.969 2°36.251 9.718159 3.599395 33.724688  
2002-03-25 08:56:29 51°22.974 2°36.224 9.636475 3.601499 33.746617  
2002-03-25 08:56:35 51°22.978 2°36.19 9.674101 3.601599 33.746878  
2002-03-25 08:56:39 51°22.981 2°36.168 9.673488 3.601198 33.742701  
2002-03-25 08:56:44 51°22.985 2°36.14 9.902925 3.601298 33.743745  
2002-03-25 08:56:49 51°22.988 2°36.112 9.902925 3.601298 33.743745  
2002-03-25 08:56:54 51°22.99 2°36.084 9.865713 3.599294 33.722077  
2002-03-25 08:56:59 51°22.993 2°36.056 9.669199 3.600798 33.740091  
2002-03-25 08:57:04 51°22.995 2°36.027 10.016169 3.599395 33.724688  
2002-03-25 08:57:09 51°22.998 2°35.999 9.708313 3.601098 33.744791  
2002-03-25 08:57:14 51°23 2°35.971 9.044518 3.600697 33.73983  
2002-03-25 08:57:19 51°23.003 2°35.943 9.044518 3.600697 33.73983  
2002-03-25 08:57:24 51°23.005 2°35.914 9.08696 3.600397 33.739831  
2002-03-25 08:57:29 51°23.007 2°35.886 9.238088 3.600597 33.741919  
2002-03-25 08:57:35 51°23.009 2°35.852 9.313496 3.600397 33.739831  
2002-03-25 08:57:40 51°23.01 2°35.824 9.314444 3.600297 33.740353  
2002-03-25 08:57:45 51°23.012 2°35.796 9.080919 3.600196 33.740092  
2002-03-25 08:57:49 51°23.013 2°35.773 9.080919 3.600196 33.740092  
2002-03-25 08:57:55 51°23.016 2°35.739 9.120342 3.599896 33.738526  
2002-03-25 08:57:59 51°23.017 2°35.717 9.119581 3.599796 33.738265  
2002-03-25 08:58:05 51°23.019 2°35.683 9.662787 3.599395 33.736438  
2002-03-25 08:58:09 51°23.02 2°35.66 9.50981 3.599395 33.735654  
2002-03-25 08:58:14 51°23.021 2°35.631 9.744674 3.598393 33.726776  
2002-03-25 08:58:20 51°23.023 2°35.598 9.744674 3.598393 33.726776  
2002-03-25 08:58:24 51°23.024 2°35.575 9.592267 3.599295 33.736961  
2002-03-25 08:58:30 51°23.026 2°35.541 9.707277 3.599194 33.737483  
2002-03-25 08:58:34 51°23.027 2°35.518 9.593494 3.599395 33.739573  
2002-03-25 08:58:39 51°23.028 2°35.49 9.825141 3.599495 33.740617  
2002-03-25 08:58:45 51°23.03 2°35.456 9.47781 3.599295 33.737744  
2002-03-25 08:58:50 51°23.032 2°35.428 9.47781 3.599295 33.737744  
2002-03-25 08:58:55 51°23.033 2°35.4 9.555302 3.599395 33.736438  
2002-03-25 08:59:00 51°23.034 2°35.372 9.477668 3.599796 33.739832  
2002-03-25 08:59:05 51°23.035 2°35.344 9.673488 3.598894 33.728865  
2002-03-25 08:59:10 51°23.038 2°35.315 9.751642 3.600096 33.741399  
2002-03-25 08:59:14 51°23.039 2°35.292 9.597317 3.599996 33.739571  
2002-03-25 08:59:19 51°23.041 2°35.264 9.597317 3.599996 33.739571  
2002-03-25 08:59:26 51°23.043 2°35.224 9.483956 3.600397 33.742181  
2002-03-25 08:59:29 51°23.045 2°35.207 9.948753 3.600497 33.741659  
2002-03-25 08:59:34 51°23.046 2°35.179 9.833558 3.600597 33.743487  
2002-03-25 08:59:39 51°23.048 2°35.151 9.409645 3.600697 33.743747  
2002-03-25 08:59:44 51°23.05 2°35.122 9.703225 3.600798 33.744008  
2002-03-25 08:59:50 51°23.052 2°35.088 9.703225 3.600798 33.744008  
2002-03-25 08:59:55 51°23.053 2°35.06 9.841081 3.600998 33.746097  
2002-03-25 09:00:00 51°23.055 2°35.032 10.111988 3.601098 33.746358  
2002-03-25 09:00:04 51°23.056 2°35.01 10.073771 3.601399 33.748707  
2002-03-25 09:00:10 51°23.058 2°34.976 9.699927 3.599595 33.725993  
2002-03-25 09:00:15 51°23.06 2°34.948 8.992427 3.601599 33.746878  
2002-03-25 09:00:19 51°23.061 2°34.925 8.992427 3.601599 33.746878  
2002-03-25 09:00:24 51°23.063 2°34.897 9.729322 3.6019 33.748444  
2002-03-25 09:00:30 51°23.065 2°34.863 9.112307 3.6023 33.751837  
2002-03-25 09:00:35 51°23.067 2°34.835 8.994571 3.6022 33.748442  
2002-03-25 09:00:40 51°23.069 2°34.806 9.541748 3.600697 33.730431  
2002-03-25 09:00:45 51°23.071 2°34.778 9.075544 3.602801 33.751573  
2002-03-25 09:00:50 51°23.072 2°34.75 9.075544 3.602801 33.751573  
2002-03-25 09:00:55 51°23.074 2°34.722 8.920984 3.603102 33.753139  
2002-03-25 09:00:59 51°23.076 2°34.699 9.116254 3.601699 33.737739  
2002-03-25 09:01:04 51°23.077 2°34.671 9.426019 3.603603 33.757575  
2002-03-25 09:01:10 51°23.079 2°34.637 9.119439 3.603703 33.756269  
2002-03-25 09:01:15 51°23.081 2°34.609 10.202665 3.603703 33.755486  
2002-03-25 09:01:20 51°23.083 2°34.581 10.202665 3.603703 33.755486  
2002-03-25 09:01:24 51°23.084 2°34.558 9.703461 3.604004 33.757834  
2002-03-25 09:01:29 51°23.086 2°34.53 10.048843 3.604204 33.759922  
2002-03-25 09:01:35 51°23.088 2°34.496 10.049733 3.604404 33.760443  
2002-03-25 09:01:40 51°23.09 2°34.467 9.70445 3.604605 33.762531  
2002-03-25 09:01:44 51°23.092 2°34.445 9.12039 3.604304 33.758616  
2002-03-25 09:01:49 51°23.093 2°34.416 9.12039 3.604304 33.758616